SCP
0 0 1 1 1 1 1 0 0 0 0 0 0 0 1 2 2 2 3 4 4 4 3 2 2 2 2 2 2 1 1 1 1 1 1 1 1 1 1 2 1 1 1 1 1 1 0 0 0
0 0 1 1 1 1 1 0 0 0 0 0 0 0 1 2 2 3 3 4 4 4 3 2 2 2 2 2 2 2 1 1 1 1 1 1 1 1 1 1 1 1 1 1 1 1 1 1 1
0 0 1 1 0 0 0 0 0 0 0 0 0 1 1 2 2 3 4 5 4 3 3 2 2 2 2 2 2 2 2 1 1 1 1 1 1 1 1 1 1 1 1 1 1 1 1 1 1
0 1 1 0 0 0 0 0 0 0 0 0 1 1 1 2 2 3 5 5 5 3 3 2 3 3 2 2 2 2 2 1 1 1 1 1 1 1 1 1 1 1 1 1 1 1 1 1 1
1 1 0 0 0 0 0 0 0 0 0 0 1 1 2 2 2 4 6 6 5 3 3 3 3 3 2 2 2 2 2 2 1 1 1 1 1 1 1 1 1 1 1 1 1 1 1 1 1
1 0 0 0 0 0 0 0 0 0 0 0 1 1 2 2 3 5 6 6 5 4 3 3 3 3 3 2 2 2 2 2 1 1 1 1 1 1 1 1 1 1 1 1 0 0 0 1 1
1 0 0 0 0 0 0 0 0 0 0 1 1 1 1 2 3 5 6 6 5 4 3 3 3 3 3 2 2 2 2 1 1 1 1 1 1 1 1 1 1 1 1 1 0 0 0 0 0
0 0 0 0 0 0 0 0 0 0 0 1 1 1 2 2 3 5 6 6 5 4 3 3 3 3 2 2 2 2 1 1 1 1 1 1 1 1 1 1 1 1 1 1 1 0 0 0 0
0 0 0 0 0 0 0 0 0 0 1 1 2 2 3 3 4 6 7 6 5 4 3 3 3 2 2 2 1 1 1 1 1 1 1 1 1 1 1 1 1 1 1 1 1 1 0 0 0
0 0 0 0 0 0 0 0 0 0 1 2 2 3 3 3 5 7 8 7 5 4 3 3 2 2 2 2 2 1 1 1 1 1 1 1 1 1 1 1 1 1 1 1 1 1 1 0 0
0 0 0 0 0 0 0 0 0 1 1 1 2 3 3 4 5 7 8 7 6 4 3 3 2 2 2 2 2 2 1 1 1 1 1 1 1 1 1 1 1 1 1 1 1 1 1 0 0
0 0 0 0 0 0 0 0 0 0 1 1 2 2 3 3 4 6 7 7 6 5 4 3 3 2 2 2 2 2 1 1 1 1 1 1 1 1 1 1 1 1 1 1 1 1 1 0 0
0 0 0 0 0 0 0 0 0 0 0 1 2 2 2 2 3 4 5 5 5 5 4 3 3 3 3 2 2 2 1 1 1 1 1 1 1 1 1 1 1 1 1 1 1 1 1 0 0
0 0 0 0 0 0 0 0 0 0 0 1 1 2 2 2 2 3 4 4 5 4 4 4 4 4 3 2 2 2 1 1 1 1 1 1 1 1 0 0 1 1 1 1 1 1 1 0 0
0 0 0 0 0 0 0 0 0 0 0 1 1 2 2 2 2 2 3 4 4 4 4 4 4 4 3 2 2 2 1 1 1 1 1 1 1 1 0 0 0 1 1 1 1 1 1 1 0
0 0 0 0 0 0 0 0 0 0 0 1 1 2 2 2 2 2 2 3 4 4 4 4 4 4 3 2 2 1 1 1 1 1 1 1 1 0 0 0 0 0 0 0 1 1 1 1 1
0 0 0 0 0 0 0 0 0 0 0 1 1 1 2 2 2 2 3 4 4 4 4 4 4 3 3 2 1 1 0 0 0 0 0 0 0 0 0 0 0 0 0 0 0 0 0 1 1
0 0 0 0 0 0 0 0 0 0 0 1 1 1 2 2 2 2 3 4 4 4 5 4 3 3 2 1 1 0 0 0 0 0 0 0 0 0 0 0 0 0 0 0 0 0 0 0 0
0 0 0 0 0 0 0 0 0 0 0 1 1 1 2 2 3 3 3 4 4 4 4 4 3 3 2 1 0 0 0 0 0 0 0 0 0 0 0 0 0 0 0 0 0 0 0 0 0
0 0 0 0 0 0 0 0 0 0 0 1 1 1 2 2 3 3 3 3 3 4 4 4 3 2 1 0 0 0 0 0 0 0 0 0 0 0 0 0 0 0 0 0 0 0 0 0 0
0 0 0 0 0 0 0 0 0 0 0 0 0 1 1 2 3 3 3 3 3 3 3 3 3 2 1 1 0 0 0 0 0 0 0 0 0 0 0 0 0 0 0 0 0 0 0 0 0
0 0 0 0 0 0 0 0 0 0 0 0 0 0 1 2 3 3 3 3 3 2 2 2 2 2 1 1 1 0 0 0 0 0 0 0 0 0 0 0 0 0 0 0 0 0 0 0 0
0 0 0 0 0 0 0 0 0 0 0 0 0 0 1 2 2 2 2 2 2 2 2 2 2 2 2 1 1 0 0 0 0 0 0 0 0 0 0 0 0 0 0 0 0 0 0 0 0
0 0 0 0 0 0 0 0 0 0 0 0 0 0 1 2 2 2 2 2 2 2 2 2 2 2 2 2 1 1 0 0 0 0 0 0 0 0 0 0 0 0 0 0 0 0 0 0 0
0 0 0 0 0 0 0 0 0 0 0 0 0 0 1 1 2 2 2 1 1 2 2 2 3 3 3 2 2 1 1 1 0 0 0 0 0 0 0 0 0 0 0 0 0 0 0 0 0
0 0 0 0 0 0 0 0 0 0 0 0 0 0 1 1 2 2 2 1 1 1 1 2 3 3 3 3 2 2 1 1 1 1 0 0 0 0 0 0 0 0 0 0 0 0 0 0 0
0 0 0 0 0 0 0 0 0 0 0 0 0 0 0 1 2 2 2 1 1 1 1 1 2 3 3 3 3 2 2 2 1 1 1 1 0 0 0 0 0 0 0 0 0 0 0 0 0
0 0 0 0 0 0 0 0 0 0 0 0 0 0 0 0 2 3 2 1 1 1 1 1 1 2 2 3 3 3 3 2 2 2 1 1 1 0 0 0 0 0 0 0 0 0 0 0 0
0 0 0 0 0 0 0 0 0 0 0 0 0 0 0 0 1 3 2 1 1 1 1 1 0 0 1 2 3 3 3 3 2 2 1 1 1 1 0 0 0 0 0 0 0 0 0 0 0
0 0 0 0 0 0 0 0 0 0 0 0 0 0 0 0 1 2 2 1 1 1 1 1 0 0 0 1 2 3 3 3 2 2 1 1 1 1 1 0 0 0 0 0 0 0 0 0 0
Wind_Speed
8 10 7 3 3 5 9 9 6 1 0 2 5 4 4 4 4 8 4 9 15 15 15 14 14 14 14 14 14 14 13 13 13 13 13 13 13 13 13 13 13 14 14 14 14 14 14 13 13
8 7 4 3 5 7 8 11 7 3 4 4 3 2 3 6 8 9 6 10 14 15 14 13 14 15 15 14 14 14 13 13 13 13 13 13 13 13 13 13 14 14 14 13 13 13 13 13 12
10 7 4 4 6 9 7 5 4 4 6 3 2 1 3 5 7 6 8 12 13 14 13 14 15 15 15 15 15 14 13 13 12 12 13 13 13 13 13 13 13 13 13 13 13 13 13 12 12
5 3 5 7 12 11 8 1 4 6 4 2 3 3 5 5 5 7 10 12 14 14 13 13 14 15 15 15 14 14 13 13 13 13 13 13 13 13 13 13 13 13 13 13 13 12 12 11 10
4 4 6 9 13 11 7 1 3 4 5 5 4 3 6 4 8 10 9 12 13 14 13 13 14 15 15 15 14 14 14 13 13 13 13 13 13 13 13 13 13 13 13 12 12 11 11 11 10
4 4 7 10 12 11 7 3 3 4 4 5 5 3 5 4 8 8 8 10 12 14 13 13 15 15 15 15 14 14 13 14 14 14 14 14 14 13 13 12 12 12 12 12 11 11 10 10 10
5 5 9 10 10 10 8 4 4 4 3 4 4 4 6 6 7 7 8 10 11 13 13 11 10 12 13 14 14 14 14 14 14 14 14 13 13 13 12 12 12 11 11 11 10 10 9 9 9
4 4 8 11 10 8 5 4 4 3 3 1 2 4 7 9 9 8 8 9 10 11 11 10 10 9 9 10 13 13 13 14 14 13 12 12 12 12 12 11 11 11 10 10 9 8 8 8 7
4 5 8 9 8 5 3 3 3 0 0 1 3 5 11 14 11 9 9 8 8 10 9 9 9 9 9 8 11 11 12 12 11 10 10 8 5 6 7 9 10 10 9 8 7 7 6 6 5
5 7 10 6 5 3 2 2 3 3 3 2 5 10 14 12 10 10 10 10 9 9 9 8 8 8 8 8 7 5 5 5 5 4 5 3 4 5 6 8 9 8 8 6 5 4 3 2 1
7 8 7 7 4 3 1 2 3 5 5 5 8 12 12 11 10 10 10 9 9 9 8 7 8 7 7 5 5 3 3 3 4 4 4 4 4 4 4 3 3 3 3 2 2 1 1 2 2
8 9 9 6 2 2 3 2 3 5 2 3 8 13 12 11 10 10 10 9 9 9 8 7 7 7 6 5 4 4 3 3 3 4 4 4 3 3 2 2 2 1 1 1 1 1 2 2 2
13 9 9 5 2 3 4 4 4 4 1 3 8 11 11 10 8 8 8 8 9 9 8 7 7 7 6 5 4 4 4 4 4 3 4 4 3 3 3 2 2 2 1 1 2 2 3 3 3
9 9 9 7 5 4 5 5 5 4 2 4 7 9 9 9 8 8 8 8 10 9 9 8 8 7 6 5 4 4 4 4 4 3 4 4 3 3 3 3 2 2 2 2 2 2 2 2 2
8 8 9 8 7 5 4 7 9 5 4 5 6 8 8 8 8 8 8 8 9 10 9 8 8 7 7 6 5 5 4 4 4 3 4 4 4 4 3 3 2 2 2 2 2 2 2 2 2
8 9 9 8 9 7 6 9 6 6 7 7 7 7 7 7 7 7 7 7 8 9 9 9 8 7 7 6 5 4 4 5 4 3 3 4 4 4 3 3 2 2 2 2 2 2 2 2 2
8 9 10 8 11 8 8 6 5 6 7 7 7 7 7 7 7 6 7 8 8 9 10 9 8 8 7 6 5 5 5 4 4 3 3 3 4 4 3 3 2 2 2 2 2 2 2 2 2
10 10 10 10 9 10 9 6 4 5 6 7 7 7 7 7 7 6 6 7 8 8 9 10 9 8 7 6 5 4 5 4 4 3 3 4 3 4 3 2 2 2 2 2 2 2 2 2 2
8 10 10 9 7 9 9 7 6 4 5 6 6 6 7 6 6 6 6 6 7 8 9 9 9 8 7 5 5 4 4 3 3 3 4 4 3 3 3 2 2 2 2 1 2 2 2 2 2
13 10 8 4 6 6 6 7 6 6 6 6 7 7 7 7 7 6 6 6 6 7 8 9 9 8 7 5 4 4 4 3 3 3 4 3 3 3 3 3 2 2 2 2 2 2 1 1 2
14 11 7 5 3 3 4 5 8 7 6 6 6 6 7 8 8 7 7 6 6 7 7 7 9 8 8 7 5 5 4 3 3 3 3 3 3 3 3 3 2 2 2 1 1 1 1 1 2
10 9 7 6 5 4 6 4 7 8 8 8 7 6 6 7 7 7 7 7 7 6 6 6 8 8 8 8 7 8 5 4 3 3 3 3 3 3 3 3 2 2 2 2 1 1 1 1 1
5 4 6 7 6 3 6 5 5 8 9 10 8 7 6 7 8 8 8 7 6 6 6 6 7 7 7 7 7 7 5 4 4 4 4 3 3 3 3 3 2 2 1 1 1 1 1 1 0
2 2 3 3 3 6 8 7 5 7 10 9 8 7 6 6 6 6 7 7 5 6 6 6 7 7 7 7 7 7 7 6 6 5 4 3 2 2 3 2 2 2 1 1 1 1 0 0 0
5 5 4 5 6 7 8 7 5 3 5 7 8 7 7 6 6 6 7 7 7 7 7 6 7 7 7 7 6 6 6 7 7 6 5 4 3 2 3 2 1 1 1 1 1 1 0 0 0
7 7 5 5 6 3 7 8 3 1 3 5 5 6 6 6 5 5 6 6 6 7 7 7 7 7 7 7 6 5 6 4 4 4 4 4 3 3 3 2 2 2 1 1 1 0 0 0 0
5 7 3 2 1 2 5 3 2 3 4 5 5 5 4 5 5 5 5 5 6 7 6 6 6 6 6 6 5 5 5 5 5 4 4 3 3 3 3 3 2 2 2 1 1 1 0 0 1
4 2 1 2 3 3 5 6 5 7 5 4 5 4 4 4 4 5 4 4 4 5 5 5 5 5 5 5 5 5 5 5 5 4 4 4 4 3 3 3 2 2 2 1 1 1 1 0 1
4 4 3 3 3 2 3 2 2 5 6 5 5 4 4 4 4 4 3 4 4 4 4 5 5 5 5 5 5 5 5 4 4 4 4 4 4 4 3 3 3 2 2 2 1 1 1 1 1
3 4 4 3 3 2 1 1 3 4 5 6 6 5 4 4 4 4 4 4 4 4 4 4 4 4 4 5 5 5 5 4 4 4 4 4 4 3 3 3 2 2 2 2 2 1 1 1 2
Wind_Direction
264 253 245 244 232 230 235 241 248 206 138 30 23 20 39 33 46 110 149 120 119 125 128 128 125 123 119 116 113 109 106 104 102 100 98 97 95 92 89 86 86 84 82 79 78 76 73 71 68
262 245 236 234 233 229 231 228 233 194 99 71 44 23 54 74 78 105 124 119 122 124 127 129 125 123 120 117 115 111 108 105 103 101 100 98 96 93 90 87 85 84 82 81 79 76 73 70 67
260 247 232 223 228 228 240 205 175 112 95 113 124 37 50 78 96 109 123 125 122 121 124 124 125 123 121 118 114 112 110 108 106 104 101 100 97 94 91 88 85 84 82 79 77 75 72 69 66
235 217 242 239 236 237 251 203 120 122 124 161 148 114 81 46 82 116 126 127 123 120 119 123 124 123 120 117 114 112 111 108 105 104 101 99 97 94 91 88 86 84 83 80 76 73 70 67 64
236 223 224 235 242 246 249 196 111 144 160 182 181 125 87 60 93 117 127 125 122 119 120 125 122 121 120 118 116 114 111 107 104 101 99 98 96 92 90 88 86 84 82 79 76 73 69 63 59
223 231 225 227 235 238 237 191 162 189 185 181 171 136 98 114 115 125 124 121 120 120 122 125 120 119 118 117 115 114 111 108 105 102 99 96 94 93 90 89 87 85 82 79 76 72 68 63 56
231 233 240 239 235 230 222 178 184 200 208 188 157 128 125 138 124 127 122 119 119 121 124 127 125 119 116 115 113 111 109 106 104 101 98 95 94 92 91 89 88 85 82 78 74 70 68 61 54
247 257 242 242 243 234 204 185 180 200 213 192 140 137 144 142 132 127 118 115 118 122 127 130 130 126 120 114 111 110 109 108 105 102 98 94 92 90 89 87 85 84 80 77 74 70 67 60 50
252 243 236 232 240 235 183 185 156 123 166 349 57 81 124 132 135 129 122 121 124 126 130 132 131 127 123 122 118 113 110 110 109 106 106 102 96 92 87 86 85 82 77 74 74 71 66 58 39
213 231 235 247 261 252 200 183 162 179 186 177 100 99 119 133 142 143 144 144 140 137 132 129 126 126 128 128 124 122 121 123 116 116 113 98 89 90 92 88 87 82 77 71 68 68 60 37 20
212 234 246 260 302 335 288 200 183 200 202 186 152 138 139 147 153 155 155 151 142 135 127 124 124 126 126 125 127 120 117 117 111 110 106 100 94 97 92 92 87 85 81 65 51 45 25 34 23
226 241 251 260 289 305 282 232 221 230 218 153 145 147 150 159 166 165 162 153 139 132 128 124 124 122 119 120 122 119 114 107 102 104 105 100 95 91 95 93 93 86 70 56 44 41 30 29 27
230 240 247 257 259 265 274 253 239 238 200 121 134 144 157 165 169 164 159 151 142 138 134 131 128 125 121 119 123 117 111 107 103 96 94 95 94 93 87 79 72 67 58 44 35 39 33 28 24
223 237 244 241 234 231 238 248 238 223 164 144 150 154 161 166 166 162 158 153 147 144 140 135 131 128 125 119 115 111 108 106 101 95 95 97 97 94 89 77 65 56 43 35 43 44 34 19 19
229 231 239 229 216 209 220 241 227 208 185 173 167 162 163 165 165 169 164 155 148 144 140 138 134 129 125 118 115 112 111 108 103 101 98 96 95 93 90 84 69 57 45 38 42 40 37 26 17
215 221 223 215 205 201 205 233 216 198 192 189 179 170 164 165 169 168 161 154 148 144 142 140 138 132 126 119 116 112 110 107 106 102 98 96 97 96 87 82 66 53 48 42 41 44 34 18 10
202 212 214 214 199 189 206 233 208 191 189 187 177 173 167 165 167 165 160 155 150 147 144 140 136 134 127 121 114 110 108 106 105 101 97 97 95 95 93 91 79 58 52 41 27 34 31 14 360
195 206 209 212 195 195 207 223 207 195 190 187 178 174 172 169 169 165 161 153 148 145 142 141 139 137 133 124 114 105 103 105 102 100 100 100 95 93 88 89 84 72 63 43 38 39 25 15 336
222 216 215 212 190 191 205 216 216 211 198 189 183 177 175 170 161 155 149 140 141 142 143 145 144 143 139 136 133 125 123 115 107 108 109 103 98 95 93 88 81 74 73 62 59 53 30 5 348
242 237 225 206 169 187 204 223 224 214 211 199 191 184 176 165 156 152 145 141 143 147 149 148 149 149 146 143 136 129 128 123 121 116 112 113 108 103 102 99 94 81 76 55 48 54 42 2 7
234 230 226 200 157 208 201 233 224 214 213 207 198 187 171 164 161 158 152 152 150 151 154 157 156 153 150 142 132 126 109 105 108 122 123 124 118 110 106 106 100 88 90 83 53 57 65 5 336
230 226 225 198 167 208 192 221 216 203 207 207 199 185 171 164 160 162 162 159 161 160 155 156 154 152 151 149 148 147 147 150 155 150 142 135 126 123 114 109 104 96 85 82 59 51 38 62 330
234 234 219 207 203 219 215 221 230 193 200 201 190 182 174 165 163 167 166 163 160 154 152 155 151 150 151 152 153 152 150 146 135 133 138 138 134 131 123 113 105 102 95 89 71 54 31 45 360
230 230 219 215 212 225 211 209 231 201 197 186 181 174 171 163 159 158 155 150 148 144 145 150 153 153 154 154 158 159 154 148 143 145 150 152 142 137 132 125 117 115 107 104 102 101 57 16 347
187 165 164 184 204 221 191 203 229 198 176 170 168 168 165 157 153 147 146 152 154 152 152 154 156 154 154 157 163 165 158 155 156 156 157 153 152 151 156 135 132 125 123 125 112 103 135 272 302
199 193 184 184 192 196 183 206 208 165 107 119 121 129 142 148 144 141 144 152 155 155 157 159 159 157 158 161 164 161 157 157 157 156 153 155 159 160 153 149 154 148 144 136 128 129 210 41 344
193 216 248 294 238 183 195 178 154 121 104 116 125 127 131 133 139 141 140 146 148 150 157 161 158 156 158 159 158 157 157 156 154 151 146 145 142 146 149 158 158 162 161 158 146 156 235 222 291
202 206 211 212 200 203 197 190 183 164 159 144 136 129 121 114 118 125 134 138 139 142 144 147 152 155 153 152 161 155 154 152 151 148 148 146 144 144 155 160 163 166 164 160 151 183 210 229 294
184 195 210 212 242 197 190 195 52 138 142 138 120 107 105 108 113 116 119 124 125 129 139 146 147 142 146 150 149 148 150 147 144 145 147 145 145 152 159 167 171 174 177 171 170 195 197 243 286
210 200 193 190 228 237 189 234 15 85 103 104 104 96 89 90 95 99 101 108 120 127 131 137 138 139 144 145 144 145 142 142 143 145 143 143 147 154 163 163 172 183 185 182 176 193 224 247 271